GFSSW_250_rhum_126.txt.gz
RH
100 100 96 99 100 100 100 98 97 100 100 100 98 100 100 97 100 100 100 95 95 100 100 97 75 96 98 100 98 74 89 99 100 100 100 96 82 65 70 77 76 66 65 40 31
100 100 100 100 100 100 90 100 96 96 100 100 100 100 94 100 100 92 80 98 99 99 100 99 100 78 64 81 96 91 97 100 100 100 100 100 100 92 59 52 82 69 53 53 53
100 100 100 98 95 100 100 84 100 100 98 99 100 100 96 99 100 100 90 87 86 88 100 91 92 91 69 57 53 68 100 92 99 81 96 100 100 100 77 100 86 72 75 63 48
100 100 100 100 84 99 100 100 98 99 100 100 100 100 89 98 100 100 100 76 73 81 74 94 99 86 89 82 70 49 55 100 93 99 87 100 99 98 100 98 72 75 92 76 46
100 100 99 92 83 80 100 100 100 83 94 96 90 97 100 91 98 91 90 79 63 67 71 77 97 84 75 64 51 47 64 68 82 100 97 95 99 100 100 82 96 100 91 82 60
100 98 82 69 67 90 90 94 74 73 81 79 84 99 100 86 93 86 91 80 64 54 60 49 52 53 47 44 40 46 53 98 96 77 100 100 87 100 100 100 100 100 96 82 72
90 80 60 53 51 58 64 71 67 71 71 73 100 99 98 91 100 92 86 88 82 84 74 54 46 42 50 54 52 48 54 62 68 84 91 100 100 100 100 93 74 100 95 85 76
67 55 64 65 69 76 68 74 66 63 48 61 88 87 91 78 97 100 84 74 79 79 71 70 67 65 46 55 69 77 79 100 100 96 100 100 100 100 98 82 100 100 100 100 96
100 95 96 85 80 75 73 76 75 68 43 40 53 67 89 98 91 86 82 96 96 85 90 89 80 73 88 57 60 70 87 100 100 100 100 100 98 100 100 100 100 100 100 78 55
94 83 82 100 96 96 75 97 100 83 74 59 49 56 58 66 62 62 87 95 94 94 100 87 80 82 86 86 100 100 100 100 100 100 100 100 100 100 99 61 46 47 43 42 42
42 46 50 76 100 100 100 100 100 100 100 100 72 51 44 38 39 96 93 83 91 99 78 62 50 66 77 74 66 66 91 100 100 100 94 82 78 62 52 49 54 59 63 63 68
36 36 45 52 62 62 99 100 100 100 100 100 100 100 100 100 100 100 90 96 100 97 88 68 62 53 44 61 82 87 84 84 86 71 85 94 80 86 84 77 65 46 42 51 52
52 44 40 42 49 58 73 100 100 100 100 100 100 100 100 96 83 96 94 87 77 77 73 64 72 66 57 48 48 58 54 52 80 98 98 88 84 86 70 64 47 62 65 56 52
78 58 52 50 47 66 73 77 83 87 89 89 93 90 94 92 75 67 67 70 70 98 98 77 84 75 69 63 60 55 55 54 55 62 84 92 73 75 62 46 58 57 54 45 50
93 95 81 68 71 69 63 63 65 74 70 65 76 77 68 68 68 64 65 54 50 54 57 66 75 74 78 74 58 49 48 55 53 50 54 73 61 52 49 52 55 51 48 41 32
81 89 91 96 96 91 83 82 86 76 64 68 60 70 84 82 73 80 90 73 71 80 66 69 58 67 76 70 65 59 58 56 57 59 56 56 52 49 48 43 40 38 34 30 24
100 96 63 80 85 100 100 100 92 74 89 83 95 88 82 90 77 65 71 83 76 64 64 71 82 79 71 70 62 52 54 54 46 48 47 48 44 40 34 38 34 28 24 21 19
97 88 100 99 99 81 100 100 84 66 95 86 77 86 67 62 71 76 64 60 66 62 57 52 49 52 61 66 64 60 55 54 44 42 49 52 33 32 38 36 32 26 22 18 14
100 100 100 100 100 100 99 100 97 100 100 97 82 66 74 76 76 52 65 77 73 69 65 58 60 60 67 74 63 65 71 66 72 48 42 34 31 34 34 31 24 20 14 12 10
100 100 96 97 98 96 84 76 78 85 100 100 100 89 78 90 83 74 59 77 85 88 76 79 72 77 86 87 85 68 57 53 38 40 35 34 28 27 25 22 14 12 12 12 13
94 75 84 96 76 82 78 81 87 92 93 98 94 89 87 80 95 87 85 79 66 68 92 81 68 60 57 61 67 58 54 35 42 46 36 29 33 26 18 14 14 15 19 27 34
85 68 67 73 67 67 77 90 87 89 89 92 97 82 94 100 98 72 78 72 58 67 76 80 71 60 59 66 56 61 60 45 40 34 40 41 29 20 17 17 16 23 36 42 34
59 67 51 65 72 58 66 92 64 73 69 76 100 82 90 94 97 71 75 67 60 85 92 84 67 50 46 52 50 61 44 35 33 28 38 27 23 18 22 28 29 36 36 36 39
35 29 31 45 40 47 48 70 81 87 73 98 99 94 88 87 96 77 79 57 43 50 53 54 60 48 37 34 40 33 33 31 29 34 21 27 23 32 42 40 42 36 31 33 38
20 22 26 35 34 53 70 57 54 54 69 76 68 84 83 77 90 91 86 46 40 42 42 48 36 27 29 28 24 30 38 29 23 23 24 34 50 51 44 41 36 34 37 34 32
12 13 19 26 28 32 29 33 37 54 64 75 51 66 67 94 96 94 53 46 42 41 42 34 26 21 22 21 27 37 25 32 34 47 61 62 57 42 42 35 29 31 29 29 31
8 8 10 13 12 13 19 29 28 29 34 34 37 43 46 53 51 35 30 32 29 29 25 20 18 21 28 24 32 37 32 61 83 79 65 61 51 42 32 31 34 31 29 26 24

GFSSW_250_rhum_129.txt.gz
RH
92 84 100 100 100 100 100 100 100 100 100 100 100 100 100 100 84 76 75 100 98 95 98 97 87 66 78 100 100 87 67 58 67 84 90 100 82 96 97 100 83 97 99 78 40
100 100 98 100 100 86 98 100 99 83 97 100 89 100 99 100 100 100 100 100 100 100 90 99 84 62 56 80 83 82 78 80 64 57 57 72 88 96 96 100 100 100 100 75 59
88 100 100 100 100 100 98 92 92 100 100 100 82 90 100 96 100 100 100 100 99 98 100 100 95 76 61 49 46 65 76 83 71 62 60 42 39 98 80 81 96 100 100 94 93
93 100 95 99 94 84 95 98 97 100 96 95 73 97 100 96 85 82 90 100 100 90 76 67 74 76 65 52 50 65 65 79 67 50 41 35 34 42 83 98 84 95 100 100 100
95 69 81 85 85 84 80 84 90 87 92 72 70 74 81 86 71 78 95 93 88 77 68 67 58 69 67 57 49 51 48 44 44 42 34 34 37 74 94 58 48 53 84 72 100
84 74 99 99 80 79 73 72 83 90 95 62 49 67 72 64 72 74 99 100 97 75 92 93 86 76 70 69 75 59 48 34 29 29 40 35 49 69 57 71 81 80 71 84 100
60 83 70 94 67 72 73 76 80 84 84 56 57 62 71 68 81 81 96 99 90 96 80 79 76 72 67 68 77 66 52 40 34 39 46 44 55 48 64 71 95 100 93 100 98
54 63 53 47 55 77 79 70 65 77 67 66 64 69 67 83 85 84 90 86 96 95 75 74 81 75 69 80 75 79 68 76 66 58 56 53 54 98 100 100 99 75 86 100 100
91 94 90 90 94 82 85 68 47 55 82 72 60 63 62 67 87 97 86 94 99 91 85 64 62 72 74 72 79 82 81 77 88 87 98 99 100 100 100 100 100 100 100 100 100
60 90 88 83 78 76 84 68 76 68 74 77 74 68 54 68 73 82 97 93 85 76 62 49 50 70 89 91 99 97 79 74 64 73 50 74 94 100 100 100 100 100 100 92 79
38 57 66 56 65 72 63 73 71 86 90 80 90 100 84 68 59 87 91 92 98 70 71 92 92 100 97 99 94 94 88 84 69 62 51 54 55 65 75 72 66 64 62 51 48
36 39 45 43 52 68 75 45 43 39 40 52 81 93 98 94 98 100 86 92 100 100 100 96 100 100 97 92 84 88 77 64 52 58 57 60 60 50 47 50 51 59 70 80 86
53 48 42 45 41 40 49 48 40 39 42 50 47 51 75 69 92 100 100 100 100 100 100 98 94 83 76 71 72 69 60 54 51 73 83 82 72 63 58 54 58 52 51 52 52
50 60 54 47 50 54 52 48 49 49 46 46 46 47 62 71 76 100 100 100 90 93 88 75 79 70 60 62 60 57 52 48 53 62 58 55 50 55 42 47 49 57 57 56 52
62 77 76 72 63 70 63 64 66 70 62 62 58 61 60 70 68 69 77 82 88 82 75 74 83 81 84 72 63 59 59 61 53 46 45 46 51 47 46 55 58 51 45 44 43
80 83 86 81 85 88 72 65 66 65 73 71 76 81 80 89 88 84 88 74 82 84 94 96 75 81 84 88 92 79 68 66 64 60 52 61 53 47 47 43 40 41 38 39 38
84 99 98 98 77 93 78 72 68 68 86 70 77 72 90 99 100 100 100 100 100 100 99 100 100 100 100 100 94 83 74 65 59 56 51 50 44 48 51 47 44 42 32 31 26
90 97 97 75 91 99 92 77 87 75 96 95 81 64 64 79 96 98 100 100 100 100 94 87 92 96 87 76 74 71 67 56 50 51 52 62 53 50 47 45 40 32 31 26 23
100 100 99 100 88 100 100 83 63 97 99 87 84 85 83 89 78 79 96 82 94 96 92 79 78 78 72 73 74 76 75 73 63 56 50 54 55 49 46 42 32 28 23 18 15
100 100 100 100 100 100 100 98 81 90 100 100 100 100 97 100 91 88 85 81 91 96 94 87 89 86 80 71 66 59 59 60 57 52 48 45 44 47 48 32 25 25 20 17 17
100 100 100 100 100 100 100 100 98 100 100 100 100 100 97 98 90 74 84 91 97 95 91 88 89 90 82 79 72 82 88 84 74 49 47 49 48 46 29 22 19 17 18 17 12
100 100 100 100 100 100 100 100 100 100 100 100 100 100 100 100 100 100 100 95 90 97 100 87 77 87 69 67 74 90 84 72 56 44 45 42 27 29 20 16 16 19 16 14 16
97 100 100 100 100 100 100 100 100 100 100 100 100 100 100 100 100 99 98 89 75 90 100 100 88 72 61 73 77 74 77 75 57 35 46 29 23 17 17 19 19 15 15 19 24
95 100 100 100 100 100 100 100 98 100 100 100 99 99 100 86 95 94 78 88 87 79 72 71 67 57 64 70 69 66 54 56 42 31 20 20 18 31 26 21 20 21 23 28 30
68 67 82 92 100 100 100 100 100 100 100 93 95 91 92 94 96 97 86 99 84 86 68 50 44 50 48 46 39 49 45 36 16 18 17 24 31 29 32 36 37 34 34 32 31
31 40 38 62 69 74 61 87 89 100 100 97 82 100 94 85 72 71 75 87 79 75 69 42 41 44 52 32 35 23 26 16 20 20 25 26 32 40 47 51 40 39 35 26 25
12 17 21 27 27 22 31 80 100 70 60 66 57 78 93 88 80 71 84 68 56 45 42 27 26 23 22 24 20 20 17 21 30 30 28 46 58 69 56 46 42 33 27 28 30

GFSSW_250_rhum_132.txt.gz
RH
64 98 98 82 84 76 100 100 85 90 96 100 92 92 100 100 89 80 100 100 100 100 88 98 92 70 48 60 74 61 71 55 70 70 81 76 80 73 61 54 52 46 55 92 96
84 100 100 100 100 93 100 100 100 100 90 100 96 95 100 94 100 100 90 99 90 100 100 85 82 92 87 78 91 90 74 73 51 47 44 47 63 68 66 60 50 41 35 64 52
99 100 79 100 100 100 100 100 100 100 100 96 97 93 79 74 85 100 78 77 89 94 94 74 64 57 78 89 83 78 67 62 55 52 47 50 64 66 63 54 44 34 29 37 51
65 100 87 87 96 100 100 95 76 90 92 87 87 82 99 79 68 88 78 86 78 66 59 65 60 62 81 72 72 67 58 54 52 54 51 44 41 45 45 35 35 27 27 40 74
59 93 80 100 96 97 100 100 100 100 93 94 90 85 72 81 69 94 79 64 52 64 66 68 90 91 82 65 67 68 64 55 48 45 54 64 56 45 36 32 26 30 32 43 39
43 46 57 76 75 71 76 82 86 90 82 88 81 85 85 83 98 94 73 61 58 68 76 84 97 99 88 68 69 67 65 63 55 46 42 49 55 52 50 48 37 34 36 33 30
52 43 66 68 91 90 92 80 65 68 74 88 80 68 69 70 90 88 81 68 69 64 88 97 87 86 84 76 70 59 54 60 46 42 38 46 53 60 63 53 52 32 27 29 31
97 90 100 100 97 100 100 100 46 57 63 63 60 65 86 70 62 86 90 78 70 65 65 79 90 89 80 80 67 64 62 62 57 60 58 62 52 60 65 48 38 40 66 86 99
83 91 62 68 97 95 95 82 54 69 75 88 89 80 81 71 60 66 71 74 83 75 68 80 87 90 89 82 72 65 62 82 97 97 91 87 88 83 65 60 52 53 54 56 68
56 48 83 70 59 69 71 81 75 63 77 90 80 77 67 61 64 50 45 58 63 65 83 83 94 100 99 91 88 81 85 87 100 100 98 100 96 89 95 88 72 54 51 47 47
46 49 53 53 48 46 42 60 65 45 43 56 72 63 72 71 60 58 58 56 61 66 81 90 99 100 95 99 97 100 100 100 100 97 100 100 100 94 85 75 58 53 43 41 45
40 38 45 46 43 45 42 40 44 41 39 35 42 49 52 66 73 48 40 39 72 88 88 100 100 100 100 100 100 100 100 100 100 97 87 77 69 59 56 54 50 47 49 53 55
42 47 53 54 49 46 47 46 47 43 45 41 42 45 43 42 49 48 39 46 48 51 81 82 98 100 100 100 100 97 93 88 83 73 56 48 47 57 60 62 64 72 68 62 50
50 42 63 58 58 64 67 59 54 55 48 56 54 46 48 49 50 67 56 54 60 55 50 51 59 63 67 71 67 64 66 61 61 58 51 59 45 67 58 57 72 71 73 67 70
72 54 46 54 54 82 71 59 62 69 60 56 56 74 67 66 65 73 81 77 70 72 74 73 75 81 82 76 74 82 86 80 70 53 51 53 57 56 72 74 74 72 65 60 54
74 91 63 62 68 85 82 76 59 60 63 70 68 81 92 86 84 88 91 85 91 86 87 98 86 86 97 95 99 97 83 70 61 63 64 73 62 58 64 62 57 53 53 54 51
94 97 88 70 74 94 68 66 67 51 69 72 78 89 99 100 100 98 100 100 94 98 97 97 99 93 96 100 96 91 86 82 69 70 60 63 56 56 59 56 51 48 52 52 46
100 100 100 100 100 100 99 81 76 62 77 70 76 100 100 98 100 100 100 100 100 100 96 100 100 100 100 87 78 74 73 71 61 66 64 62 54 53 51 50 50 49 45 36 28
100 82 95 100 100 100 100 100 91 100 79 83 74 88 95 99 96 100 100 100 100 100 90 83 81 88 90 90 74 89 96 90 77 60 52 58 53 52 53 48 47 49 34 28 24
100 100 100 100 100 100 100 100 100 100 100 96 83 90 99 100 69 86 91 87 90 99 100 97 96 100 100 99 90 82 79 80 82 61 54 50 46 53 46 40 46 36 28 23 22
100 100 100 100 100 100 100 100 100 100 95 89 94 73 81 100 95 98 94 95 99 100 100 100 100 100 100 100 100 98 85 81 75 65 58 49 42 50 41 52 37 29 21 17 13
100 100 100 100 100 100 100 100 100 100 100 100 100 86 93 89 80 95 95 100 100 100 100 100 98 83 92 100 95 88 80 76 78 77 71 63 38 52 50 36 26 20 16 13 12
100 100 100 100 100 100 100 100 100 100 100 100 100 100 100 100 100 98 100 100 100 100 100 100 100 96 93 90 83 91 80 76 88 87 69 42 50 52 33 21 18 14 13 15 18
59 96 100 100 100 100 100 100 100 100 100 100 100 100 100 100 100 100 100 100 100 100 100 100 92 91 99 94 76 85 85 84 81 88 52 42 35 30 20 17 15 15 18 18 16
30 45 81 99 100 100 100 100 100 100 100 100 100 100 100 100 100 100 100 100 100 100 100 100 100 100 92 81 72 70 66 77 80 41 33 28 23 20 17 18 22 23 23 22 30
16 16 28 47 88 100 100 100 100 100 100 100 100 100 100 100 100 100 100 100 100 100 96 94 94 81 78 64 53 49 56 70 34 28 24 22 20 18 24 29 31 32 33 38 36
11 14 18 23 34 39 50 100 100 100 100 100 100 100 100 100 100 100 93 99 99 82 77 71 79 71 44 47 29 35 56 32 24 23 19 19 22 34 36 42 45 47 48 40 32

GFSSW_250_rhum_135.txt.gz
RH
100 100 99 71 70 74 70 76 98 100 96 86 100 100 93 94 100 82 84 78 97 95 82 100 97 75 85 83 81 74 54 43 62 58 58 59 70 67 51 40 37 44 62 74 64
91 94 77 100 93 90 92 98 96 100 100 100 94 98 100 100 99 79 96 84 70 80 71 59 53 65 60 78 92 74 55 51 52 90 82 72 62 59 56 53 52 48 82 70 60
100 100 100 99 97 100 98 100 80 85 64 100 100 98 100 99 99 78 89 78 81 70 80 63 77 69 67 60 57 61 55 57 52 52 62 66 58 47 44 44 44 66 59 52 50
99 100 100 100 100 88 100 100 78 72 100 70 100 99 99 100 100 90 72 78 67 69 63 58 66 72 68 59 61 51 52 56 63 65 60 58 55 53 44 36 42 42 48 42 33
92 58 72 62 68 78 97 100 84 74 93 98 100 88 88 100 88 76 91 97 81 75 67 61 95 81 65 58 58 59 68 71 64 73 68 55 47 41 43 36 35 37 48 47 43
78 100 90 55 95 98 100 98 88 63 74 72 82 84 98 99 76 65 92 91 80 88 90 93 97 85 71 62 60 71 72 78 78 68 70 63 47 43 39 31 32 40 44 49 46
58 78 88 46 76 98 100 100 75 48 44 52 85 98 100 71 56 72 92 92 73 83 74 70 76 95 79 66 55 54 55 60 64 58 66 64 48 39 37 34 30 31 38 47 54
80 91 99 63 76 96 94 74 75 65 71 73 80 100 100 99 64 56 70 83 83 84 70 72 78 87 77 72 61 64 76 67 68 66 58 61 57 67 62 61 57 65 73 78 73
90 93 81 85 74 64 67 95 88 92 90 79 84 88 85 91 68 62 80 85 82 87 76 79 68 60 63 55 54 54 66 92 93 90 77 79 80 82 88 94 100 100 99 97 97
42 33 35 66 45 44 38 45 46 64 58 77 74 66 69 71 73 55 50 59 74 73 71 69 63 54 47 43 54 76 85 94 100 98 82 88 93 90 96 100 98 97 95 89 86
30 34 32 46 43 46 40 34 36 54 53 54 52 49 45 47 50 50 42 37 33 43 49 46 52 52 40 50 69 70 88 100 100 100 99 98 100 100 91 84 89 86 72 61 57
41 38 46 44 52 47 55 44 41 41 42 49 49 46 47 42 41 40 41 45 44 41 46 45 49 49 60 68 55 73 100 100 100 100 100 100 100 99 94 82 72 65 61 60 60
44 51 56 57 57 67 73 65 60 46 41 46 53 53 51 48 55 57 52 57 59 55 54 56 54 53 54 60 56 52 77 88 86 80 68 60 54 60 70 67 65 66 66 66 63
66 63 73 65 63 62 78 94 73 67 51 47 58 62 72 73 69 73 72 70 70 78 72 68 71 76 79 83 84 76 73 73 71 71 70 70 48 45 50 60 68 65 64 57 61
100 96 100 63 68 70 91 94 78 78 68 53 52 61 57 80 96 94 94 93 96 99 94 84 91 91 90 87 86 83 90 88 86 76 67 58 57 58 60 61 65 67 70 72 59
100 100 100 94 81 85 57 99 60 78 68 74 66 54 67 61 75 94 98 84 100 100 100 100 92 99 100 100 96 87 88 82 69 66 63 62 56 54 57 66 60 55 54 53 55
100 100 100 100 99 100 85 100 80 62 53 68 88 79 74 63 75 86 90 99 99 100 100 100 100 100 100 100 100 98 79 68 64 67 62 60 50 55 66 63 56 61 61 58 50
100 100 100 100 100 100 100 85 100 78 71 74 90 100 100 77 79 88 70 77 100 100 100 100 100 100 100 100 100 100 100 97 79 76 70 62 56 70 85 81 80 67 54 49 46
100 100 100 100 100 100 100 92 100 100 100 98 100 96 100 100 100 89 84 86 100 100 100 96 100 100 100 100 100 100 100 100 90 81 69 75 75 58 74 73 69 55 44 45 44
100 100 100 100 100 100 100 100 100 99 99 100 100 100 100 100 100 91 76 97 100 100 100 99 87 95 100 100 99 96 100 100 94 87 78 66 63 91 83 65 54 57 47 36 38
100 100 100 100 100 100 100 100 100 100 100 100 100 100 100 100 100 100 99 99 99 100 100 98 84 73 85 72 82 86 87 86 82 80 66 60 63 90 59 59 52 43 35 34 24
100 95 99 100 100 100 100 100 100 100 100 100 100 100 100 100 100 100 100 100 100 100 100 100 92 88 75 66 72 76 64 63 73 83 79 68 67 84 61 46 36 34 34 20 16
54 78 99 100 100 100 100 100 100 100 100 100 100 100 100 100 100 100 100 100 100 100 100 99 81 85 83 91 93 91 100 86 88 94 87 71 70 79 57 48 35 32 21 17 16
44 50 60 76 96 100 100 100 100 100 100 100 100 100 100 100 100 100 100 100 100 100 100 100 92 90 94 100 100 100 100 90 90 100 100 79 64 88 65 50 30 19 18 17 15
17 16 25 43 46 66 100 100 100 100 100 100 100 100 100 100 100 100 100 100 100 100 100 100 100 100 100 100 100 100 82 90 100 94 76 76 65 58 43 32 22 20 19 20 21
14 13 12 17 21 29 60 77 100 100 100 100 100 100 100 100 100 100 100 100 100 100 100 100 100 100 100 100 95 72 100 100 86 68 60 49 37 34 26 23 23 22 26 27 30
8 11 10 13 14 15 18 38 77 98 100 100 100 100 100 100 100 100 100 100 100 100 100 100 100 100 100 99 86 90 91 94 68 43 36 32 34 26 26 24 25 33 42 41 51